Content
SEND FEEDBACK

Daily
Averages
Monthly
Summary
United States of America

WILMINGTON, NORTH CAROLINA


Home > North America > United States > North Carolina
Elevation: 21 meters     Latitude: 34 16N     Longitude: 077 54W

WEATHER
 
SELECT A DAY
Number of Records: 208,807;   Date Range: 1/1/95 - 7/29/14
 
SHARE

PRINT THIS DATA

[ ← Previous Day ]
WEATHER ALMANAC - 8 OCTOBER, 2013
[ Next Day → ]
[ °F ]   °C
We're sorry. There is no daily almanac available for Wilmington, North Carolina on 8 October, 2013.
WEATHER BY HOUR - 8 OCTOBER, 2013
[ °F ]   °C
Local TimeTemperatureDewpointHumidityBarometerVisibilityWind DirectionWind SpeedGust SpeedPrecipitationEventsConditions
12:45 AM23 °C22 °C94 %1012.9 hPa14.5 kmNE (40°)14.8 km/h0 mmOvercast
12:53 AM22.8 °C21.7 °C93 %1012.5 hPa14.5 kmNNE (30°)14.8 km/h0 mmOvercast
1:07 AM23 °C22 °C94 %1012.5 hPa8 kmNNE (30°)14.8 km/h0.25 mmRainLight Rain
1:11 AM23 °C22 °C94 %1012.5 hPa9.7 kmNNE (20°)16.7 km/h0.25 mmRainLight Rain
1:45 AM22 °C22 °C100 %1012.9 hPa9.7 kmNorth (10°)13 km/h0.51 mmRainLight Rain
1:53 AM22.2 °C21.1 °C93 %1012.9 hPa11.3 kmNorth (10°)13 km/h0.76 mmRainLight Rain
2:06 AM22 °C21 °C94 %1012.9 hPa2.9 kmNNE (30°)20.4 km/h1.02 mmRainHeavy Rain
2:21 AM22 °C21 °C94 %1012.9 hPa1.9 kmNorth (360°)18.5 km/h31.5 km/h5.33 mmRainHeavy Rain
2:31 AM22 °C21 °C94 %1012.9 hPa2.4 kmNorth (350°)20.4 km/h10.16 mmRainHeavy Rain
2:36 AM22 °C21 °C94 %1012.9 hPa4.8 kmNorth (360°)16.7 km/h10.41 mmRainRain
2:44 AM22 °C21 °C94 %1012.9 hPa6.4 kmNorth (360°)20.4 km/h10.67 mmRainRain
2:53 AM22.2 °C21.1 °C93 %1012.9 hPa6.4 kmNorth (350°)14.8 km/h11.18 mmRainHeavy Rain
3:44 AM22 °C21 °C94 %1012.2 hPa16.1 kmENE (70°)16.7 km/h2.29 mmRainLight Rain
3:53 AM22.2 °C21.1 °C93 %1011.9 hPa16.1 kmEast (80°)16.7 km/h2.29 mmRainLight Rain
4:20 AM22 °C21 °C94 %1012.2 hPa16.1 kmNorth (350°)11.1 km/h0 mmMostly Cloudy
4:38 AM22 °C21 °C94 %1012.9 hPa16.1 kmNorth (350°)13 km/h0 mmRainLight Rain
4:53 AM22.2 °C20.6 °C91 %1012.9 hPa16.1 kmNorth (360°)14.8 km/h0 mmOvercast
5:05 AM22 °C21 °C94 %1013.5 hPa16.1 kmNorth (360°)16.7 km/hOvercast
5:12 AM22 °C21 °C94 %1013.5 hPa16.1 kmNorth (10°)22.2 km/hOvercast
5:28 AM22 °C21 °C94 %1013.5 hPa16.1 kmNNE (20°)24.1 km/h0 mmOvercast
5:53 AM21.7 °C20 °C90 %1014.6 hPa16.1 kmNNE (20°)18.5 km/h0 mmOvercast
6:03 AM22 °C20 °C88 %1014.6 hPa16.1 kmNNE (30°)20.4 km/hOvercast
6:33 AM21 °C20 °C94 %1014.2 hPa12.9 kmNNE (20°)27.8 km/h0.51 mmRainRain
6:53 AM18.9 °C17.2 °C90 %1014.6 hPa9.7 kmNorth (360°)29.6 km/h1.27 mmRainRain
7:53 AM17.8 °C16.7 °C93 %1015.9 hPa16.1 kmNNE (30°)29.6 km/h0.76 mmOvercast
8:53 AM17.2 °C15.6 °C90 %1016.6 hPa16.1 kmNNE (20°)35.2 km/h50.1 km/hOvercast
9:01 AM17 °C16 °C94 %1016.9 hPa16.1 kmNNE (30°)31.5 km/h42.6 km/hOvercast
9:53 AM16.7 °C14.4 °C86 %1017.6 hPa16.1 kmNNE (20°)24.1 km/h38.9 km/hOvercast
10:53 AM16.7 °C14.4 °C86 %1017.6 hPa16.1 kmNNE (30°)27.8 km/h42.6 km/hOvercast
11:53 AM17.2 °C14.4 °C84 %1017.9 hPa16.1 kmNNE (30°)35.2 km/h44.4 km/h0 mmRainLight Rain
12:53 PM17.2 °C15 °C87 %1017.9 hPa16.1 kmNNE (20°)31.5 km/h38.9 km/h0 mmRainLight Rain
1:53 PM16.1 °C14.4 °C90 %1017.6 hPa12.9 kmNNE (20°)27.8 km/h38.9 km/h0 mmRainLight Rain
2:53 PM15.6 °C14.4 °C93 %1017.6 hPa12.9 kmNNE (20°)27.8 km/h1.02 mmRainLight Rain
3:53 PM15.6 °C14.4 °C93 %1017.6 hPa12.9 kmNNE (20°)25.9 km/h1.27 mmRainLight Rain
4:11 PM16 °C14 °C88 %1017.6 hPa9.7 kmNNE (20°)25.9 km/h0.25 mmRainLight Rain
4:53 PM15.6 °C13.9 °C90 %1017.3 hPa6.4 kmNNE (20°)25.9 km/h38.9 km/h1.78 mmRainRain
5:21 PM16 °C14 °C88 %1017.3 hPa2.9 kmNNE (30°)25.9 km/h38.9 km/h1.02 mmRainHeavy Rain
5:32 PM16 °C14 °C88 %1016.9 hPa4.8 kmNNE (30°)31.5 km/h3.05 mmRainHeavy Rain
5:53 PM15.6 °C14.4 °C93 %1016.6 hPa11.3 kmNNE (30°)33.3 km/h42.6 km/h3.81 mmRainLight Rain
6:53 PM15.6 °C14.4 °C93 %1017.9 hPa9.7 kmNorth (350°)22.2 km/h1.78 mmRainRain
7:53 PM15.6 °C13.9 °C90 %1017.6 hPa16.1 kmNorth (10°)24.1 km/h44.4 km/h1.02 mmRainLight Rain
8:53 PM15.6 °C13.9 °C90 %1018.6 hPa16.1 kmNorth (10°)20.4 km/h38.9 km/h0.25 mmRainLight Rain
9:53 PM15 °C13.9 °C93 %1019 hPa8 kmNorth (360°)18.5 km/h35.2 km/h0.76 mmRainRain
10:41 PM15 °C14 °C94 %1018.6 hPa4 kmNorth (360°)22.2 km/h2.54 mmRainHeavy Rain
10:49 PM15 °C14 °C94 %1018.6 hPa8 kmNorth (360°)24.1 km/h2.79 mmRainLight Rain
10:53 PM15 °C13.9 °C93 %1018.6 hPa11.3 kmNorth (360°)22.2 km/h35.2 km/h2.79 mmRainLight Rain
11:53 PM15 °C13.9 °C93 %1018.3 hPa16.1 kmNorth (360°)18.5 km/h0.76 mmRainLight Rain
Hourly data recorded from KILM, located 0 kilometers away from Wilmington, North Carolina







STORIES FROM OUR PARTNERS